Location: Ballon
(46.0571°N, 0.9518°W)
Time: 21:00:27
(UTC+00:00)

Daily predictions for brighter satellites

Satellite Brightness Start Highest point End
(mag) Time Altitude Azimuth Time Altitude Azimuth Time Altitude Azimuth
Cosmos 1943 4.3 18:17:46 10° NW 18:23:12 49° WSW 18:28:38 10° S
Sich 1 Rocket 3.7 18:18:59 10° S 18:23:24 57° E 18:27:54 10° NNE
NOSS 2-2 (E) 3.8 18:20:22 10° SW 18:23:50 59° NW 18:27:49 10° NNE
CENTAUR R/B 3.5 18:17:02 10° NW 18:24:44 52° NE 18:33:14 10° ESE
Cosmos 2298 Rocket 4.4 18:20:20 10° S 18:25:22 45° ESE 18:30:26 10° NNE
Cosmos 1975 3.6 18:22:38 10° SSW 18:26:40 59° WNW 18:30:42 10° N
Cosmos 1437 3.9 18:24:02 10° NNW 18:26:56 45° W 18:29:48 10° S
Iridium 4 Rocket 3.8 18:22:39 10° S 18:27:50 81° W 18:33:30 10° N
CSL-04 Debris 4.4 18:25:06 10° SE 18:30:18 52° ENE 18:35:32 10° N
Helios 1A Rocket 3.5 18:27:57 10° S 18:32:02 65° WSW 18:36:11 10° NNW
CSL-04 Rocket 3.9 18:27:00 10° SE 18:32:16 52° ENE 18:37:37 10° N
ATLAS 2AS CENTAUR R/B 3.9 18:27:00 10° SSE 18:33:17 27° ESE 18:39:34 10° ENE
Cosmos 1937 Rocket 4.4 18:28:24 10° SW 18:33:32 55° WNW 18:38:40 10° NNE
Okean 2 Rocket 3.4 18:29:22 10° SSE 18:33:39 47° E 18:37:56 10° NNE
NOSS 2-2 (D) 3.7 18:30:14 10° SW 18:33:41 60° NW 18:37:36 10° NNE
Cosmos 1025 Rocket 3.4 18:30:21 10° N 18:34:35 45° ENE 18:38:48 10° SSE
YAOGAN 1 2.5 18:30:29 10° SSE 18:34:47 72° ENE 18:39:07 10° N
ATLAS 3B R/B 3.9 18:30:55 10° NNW 18:36:38 27° NNE 18:42:30 10° E
SKYMED 2 4.2 18:34:26 10° N 18:38:44 61° WNW 18:43:00 10° SSW
Abrixas rocket 2.0 18:36:55 10° WNW 18:39:45 64° NNE 18:42:11 13° E
Cosmos 1513 Rocket 4.5 18:35:03 10° S 18:41:10 62° E 18:47:14 10° NNE
CREW DRAGON DEMO-1 DEB 3.3 18:38:50 10° WNW 18:41:47 48° NNE 18:44:16 13° E
Cosmos 1536 Rocket 4.0 18:40:05 10° N 18:44:22 43° ENE 18:48:38 10° SSE
Cosmos 1125 Rocket 3.9 18:41:04 10° S 18:46:01 42° ESE 18:51:00 10° NE
SJ-6B 4.3 18:48:31 14° E 18:50:17 18° ENE 18:52:56 10° NNE
CZ-2D R/B 4.4 18:48:35 10° S 18:52:21 47° W 18:56:08 10° NNW
CZ-4 R/B 2.1 18:48:14 10° S 18:52:23 61° WSW 18:56:32 10° NNW
Cosmos 2150 Rocket 4.0 18:47:31 10° S 18:52:52 71° ESE 18:58:19 10° NNE
SJ-11-01 4.3 18:48:47 10° SSE 18:53:27 68° ENE 18:58:08 10° N
USA 238 DEB 3.9 18:47:01 10° NW 18:54:16 88° NE 19:01:49 10° SE
USA 238 3.9 18:47:07 10° NW 18:54:23 87° NE 19:01:55 10° SE
CZ-2C R/B 3.2 18:49:07 10° SSE 18:54:30 85° ENE 19:00:11 10° NNW
Cosmos 1464 Rocket 3.9 18:48:24 10° S 18:54:30 75° E 19:00:42 10° NNE
Okean-O 3.6 18:51:58 10° S 18:56:16 50° W 19:00:37 10° NNW
Cosmos 2285 Rocket 4.3 18:50:48 10° S 18:56:43 45° ESE 19:02:42 10° NNE
Cosmos 1674 3.3 18:53:08 10° N 18:56:44 36° ENE 19:00:17 10° SE
Cosmos 1092 Rocket 4.5 18:51:57 10° N 18:57:39 38° ENE 19:03:22 10° SE
MOS 1 Rocket 3.1 18:59:22 10° NNE 19:03:40 56° E 19:07:51 10° S
FREGAT/IRIS 4.4 19:04:41 14° NE 19:04:41 14° NE 19:05:38 10° NNE
ARGOS 3.1 19:04:47 10° SSE 19:10:06 69° ENE 19:15:29 10° N
In-Cosmos 22 4.2 19:05:40 10° NNW 19:11:00 78° W 19:16:24 10° S
Cosmos 1048 Rocket 4.2 19:06:44 10° NNW 19:12:05 79° WSW 19:17:27 10° SSE
CZ-2C R/B 3.2 19:08:44 10° NNE 19:13:55 38° E 19:19:05 10° SSE
Cosmos 1340 Rocket 4.4 19:15:11 18° ENE 19:15:11 18° ENE 19:16:55 10° NE
Cosmos 1733 4.0 19:13:47 20° SE 19:15:36 30° E 19:18:58 10° NNE
Cosmos 2151 Rocket 3.6 19:11:49 10° S 19:16:16 88° W 19:20:48 10° N
HJ-1C 3.8 19:13:49 10° S 19:17:04 63° W 19:20:22 10° NNW
Lacrosse 5 rocket 3.5 19:14:22 10° NW 19:17:39 20° N 19:20:43 11° NE
NOSS 3-2 (A) 4.4 19:11:11 10° NW 19:18:42 68° WSW 19:27:08 10° SSE
Cosmos 2082 Rocket 3.7 19:15:20 10° N 19:19:21 19° NE 19:21:17 17° ENE
Shenzhou-11 Module 3.6 19:19:54 10° SSW 19:20:33 14° SSW 19:20:33 14° SSW
BREEZE-M DEB (TANK) 3.3 19:18:50 10° WNW 19:21:53 59° SSW 19:27:36 18° SE
BREEZE-M R/B 4.1 19:09:41 10° WSW 19:22:20 83° SSE 19:24:25 24° ENE
Cosmos 494 Rocket 4.0 19:19:35 10° NNW 19:24:53 88° ENE 19:29:52 12° SSE
ATLAS 5 CENTAUR R/B 4.5 19:23:10 10° WNW 19:26:31 29° SW 19:35:10 10° S
Meteor 1-15 Rocket 4.1 19:21:18 10° S 19:26:56 77° E 19:32:42 10° NNE
Cosmos 1805 3.2 19:23:35 10° S 19:27:25 59° E 19:31:17 10° NNE
OBJECT-B 2.4 19:28:48 21° NE 19:28:48 21° NE 19:30:34 10° NNE
Milstar 3 Cent rocket 4.2 19:26:49 10° SW 19:30:25 14° S 19:32:39 12° SSE
Ariane Rocket 3.0 19:28:06 17° SSE 19:31:59 65° ENE 19:37:02 10° N
SL-08 RB Rocket 3.6 19:27:52 12° SSE 19:32:01 79° ENE 19:36:34 10° N
H-2A R/B 2.6 19:28:33 10° S 19:33:27 57° W 19:38:31 10° NNW
USA 234 4.5 19:38:13 20° SE 19:38:13 20° SE 19:41:22 10° S
Cosmos 1269 Rocket 4.0 19:31:31 10° NNW 19:36:49 65° ENE 19:39:33 29° SE
Nadezhda 4 Rocket 4.2 19:32:10 10° NNW 19:38:16 71° W 19:44:20 10° S
KORONAS-FOTON 4.0 19:34:23 10° NNW 19:38:19 76° W 19:41:31 15° S
Cosmos 1626 2.3 19:38:27 10° N 19:42:02 49° ENE 19:42:02 49° ENE
MetOp-A 4.1 19:40:20 25° SSE 19:43:31 66° ENE 19:48:50 10° N
USA 186 1.8 19:42:34 42° S 19:43:32 78° WSW 19:46:50 10° NNW
Cosmos 1844 Rocket 3.5 19:40:22 10° SW 19:45:48 53° WNW 19:51:18 10° NNE
COSMOS 2406 3.3 19:40:21 10° NNW 19:45:57 55° ENE 19:47:55 37° ESE
ISS -2.3 19:43:54 10° WNW 19:46:57 31° N 19:47:46 27° NNE
Cosmos 2278 Rocket 3.0 19:44:49 10° S 19:51:32 31° ENE 19:55:07 10° NE
IRS-1A Rocket 4.3 19:47:47 15° SSE 19:52:48 86° WSW 19:58:39 10° NNW
Lacrosse 4 Rocket 2.8 19:49:52 10° N 19:52:52 24° NE 19:52:52 24° NE
Cosmos 1844 4.3 19:47:51 10° SW 19:53:28 58° WNW 19:59:01 10° NNE
Meteor 1-22 Rocket 4.3 19:48:59 10° S 19:54:49 67° E 20:00:51 10° NNE
Meteor 2-5 Rocket 3.7 19:50:49 10° NNW 19:56:32 86° W 20:00:46 19° S
NOSS 3-2 (C) 4.5 19:49:29 10° NW 19:56:58 62° WSW 20:03:38 17° SSE
Exosat Rocket 3.9 19:52:33 10° SSW 19:57:54 66° WNW 20:02:54 10° NNE
Meteor 1-24 Rocket 3.6 19:53:16 10° N 19:58:52 78° ENE 20:01:37 32° SSE
Okean 1 Rocket 3.4 19:55:33 10° SSW 20:00:00 66° W 20:04:30 10° N
NOSS 3-4 (A) 3.3 19:54:57 10° SW 20:00:51 85° SE 20:07:12 10° NE
NOSS 3-4 (C) 3.3 19:55:04 10° SW 20:00:58 84° SE 20:07:18 10° NE
SL-14 R/B 3.1 19:58:05 10° N 20:01:55 75° NE 20:01:55 75° NE
Resurs 01 Rocket 2.4 20:03:26 38° NE 20:03:26 38° NE 20:06:56 10° N
Cosmos 1766 3.9 20:05:23 10° SSW 20:09:14 55° WNW 20:13:08 10° N
Cosmos 1833 Rocket 2.7 20:05:26 10° NNW 20:11:05 64° ENE 20:11:54 57° ESE
Cosmos 2251 Rocket 4.1 20:08:54 10° N 20:13:44 40° NE 20:13:44 40° NE
Abrixas rocket 4.5 20:12:19 10° W 20:13:27 19° W 20:13:27 19° W
CENTAUR R/B 3.8 20:07:50 10° NW 20:15:44 53° WSW 20:22:00 19° S
ARIANE 5 R/B 4.2 20:20:05 24° NNE 20:20:05 24° NNE 20:22:14 10° N
SPOT 3 Rocket 3.4 20:20:50 72° SE 20:21:20 82° ENE 20:26:31 10° NNW
Cosmos 1634 Rocket 4.1 20:17:08 10° SSW 20:23:18 73° W 20:29:31 10° N
ATLAS 2AS CENTAUR R/B 3.0 20:15:36 10° SW 20:23:35 83° NW 20:31:30 10° NE
SJ-6B 4.0 20:24:09 35° WSW 20:24:41 37° W 20:28:13 10° NNW
Resurs 1-3 3.7 20:26:18 74° WNW 20:26:18 74° WNW 20:30:27 10° NNW
ATLAS 3B R/B 2.6 20:21:24 10° NW 20:28:18 82° NE 20:29:50 58° SE
Cosmos 1892 Rocket 3.8 20:24:48 10° NNW 20:28:35 64° NW 20:28:35 64° NW
Cosmos 1655 Rocket 3.9 20:31:33 10° N 20:37:50 68° E 20:37:50 68° E
CZ-2C R/B 4.2 20:49:06 10° N 20:54:08 36° WNW 20:59:10 10° SW
Cosmos 2180 Rocket 4.5 20:57:17 78° SW 20:57:38 81° W 21:04:01 10° N
Lacrosse 5 rocket 3.2 20:53:38 10° NW 20:56:20 29° NNW 20:56:20 29° NNW
Cosmos 2279 Rocket 4.3 20:57:29 39° SW 20:59:47 63° WNW 21:06:02 10° N
OBJECT-B 4.1 21:02:00 13° NW 21:02:00 13° NW 21:02:41 10° NW
Cosmos 2098 Rocket 4.0 20:55:35 10° N 21:01:45 74° NW 21:01:45 74° NW
Cosmos 2082 Rocket 2.6 20:58:33 10° NNW 21:03:08 60° NNW 21:03:08 60° NNW
Terra 4.1 21:21:44 17° N 21:21:44 17° N 21:22:55 10° N
Lacrosse 4 Rocket 4.2 21:28:14 10° NW 21:29:10 16° NW 21:29:10 16° NW
Cosmos 2278 Rocket 3.4 21:33:00 35° WNW 21:34:00 38° NW 21:39:17 10° NNE
Resurs 01 Rocket 4.2 21:41:00 18° WNW 21:41:00 18° WNW 21:42:53 10° NW
ATLAS 3B R/B 4.5 22:13:06 10° WNW 22:17:06 22° W 22:17:06 22° W
